Location: Huntsville
(41.2590°N, 111.7678°W)
Time: 02:19:39
(UTC+00:00)

Tiros 1 despin weight - All Passes

Search period start: 13 June 2021 00:00
Search period end: 23 June 2021 00:00
Orbit: 593 x 641 km, 48.2° (Epoch: 12 June)

Date Brightness Start Highest point End Pass type
(mag) Time Alt. Az. Time Alt. Az. Time Alt. Az.
13 Jun - 13:38:50 10° SE 13:39:30 10° SE 13:40:09 10° ESE daylight
13 Jun - 15:15:58 10° SW 15:20:16 57° SE 15:24:38 10° ENE daylight
13 Jun - 16:57:42 10° W 17:01:56 44° NNW 17:06:13 10° ENE daylight
13 Jun - 18:40:06 10° WNW 18:44:09 33° N 18:48:15 10° ENE daylight
13 Jun - 20:21:46 10° WNW 20:26:13 64° NNE 20:30:43 10° ESE daylight
13 Jun - 22:03:35 10° WNW 22:07:34 31° SW 22:11:36 10° SSE daylight
14 Jun - 13:52:05 10° S 13:55:25 21° SE 13:58:44 10° E daylight
14 Jun - 15:32:08 10° WSW 15:36:32 83° NNW 15:40:59 10° ENE daylight
14 Jun - 17:14:23 10° WNW 17:18:28 35° N 17:22:36 10° ENE daylight
14 Jun - 18:56:33 10° WNW 19:00:43 38° NNE 19:04:57 10° E daylight
14 Jun - 20:38:04 10° WNW 20:42:33 81° SSW 20:47:06 10° SE daylight
14 Jun - 22:20:42 10° W 22:23:35 17° SW 22:26:29 10° S daylight
15 Jun - 14:07:21 10° SSW 14:11:27 40° SE 14:15:35 10° ENE daylight
15 Jun - 15:48:36 10° W 15:52:55 53° NNW 15:57:17 10° ENE daylight
15 Jun - 17:31:03 10° WNW 17:35:04 33° N 17:39:07 10° ENE daylight
15 Jun - 19:12:53 10° WNW 19:17:13 50° NNE 19:21:37 10° E daylight
15 Jun - 20:54:29 10° WNW 20:58:46 45° SW 21:03:06 10° SE daylight
16 Jun - 12:44:23 10° SSE 12:46:43 14° SE 12:49:02 10° E daylight
16 Jun - 14:23:15 10° SW 14:27:38 73° SSE 14:32:03 10° ENE daylight
16 Jun - 16:05:15 10° W 16:09:24 39° NNW 16:13:36 10° ENE daylight
16 Jun - 17:47:34 10° WNW 17:51:39 35° N 17:55:46 10° ENE daylight
16 Jun - 19:29:10 10° WNW 19:33:37 76° NNE 19:38:09 10° ESE daylight
16 Jun - 21:11:13 10° W 21:14:51 24° SW 21:18:31 10° S daylight
17 Jun - 12:58:57 10° SSW 13:02:41 27° SE 13:06:25 10° E daylight
17 Jun - 14:39:33 10° WSW 14:43:56 68° NNW 14:48:22 10° ENE daylight
17 Jun - 16:21:56 10° WNW 16:25:58 34° N 16:30:02 10° ENE daylight
17 Jun - 18:03:58 10° WNW 18:08:12 42° NNE 18:12:27 10° E daylight
17 Jun - 19:45:30 10° WNW 19:49:54 65° SSW 19:54:23 10° SE daylight
17 Jun - 21:28:55 10° WSW 21:30:48 12° SW 21:32:42 10° SSW daylight
18 Jun - 13:14:30 10° SW 13:18:46 51° SE 13:23:04 10° ENE daylight
18 Jun - 14:56:07 10° W 15:00:22 46° NNW 15:04:39 10° ENE daylight
18 Jun - 16:38:33 10° WNW 16:42:33 33° N 16:46:36 10° ENE daylight
18 Jun - 18:20:16 10° WNW 18:24:40 59° NNE 18:29:05 10° ESE daylight
18 Jun - 20:02:00 10° WNW 20:06:04 35° SW 20:10:10 10° SSE daylight
19 Jun - 11:50:51 10° S 11:53:57 19° SE 11:57:02 10° E daylight
19 Jun - 13:30:36 10° WSW 13:35:01 90° E 13:39:27 10° ENE daylight
19 Jun - 15:12:48 10° WNW 15:16:54 36° N 15:21:01 10° ENE daylight
19 Jun - 16:55:01 10° WNW 16:59:08 37° N 17:03:17 10° ENE daylight
19 Jun - 18:36:33 10° WNW 18:41:01 88° SSW 18:45:30 10° ESE daylight
19 Jun - 20:18:59 10° W 20:22:06 19° SW 20:25:14 10° S daylight
20 Jun - 12:05:57 10° SSW 12:09:58 35° SE 12:14:00 10° ENE daylight
20 Jun - 13:47:01 10° WSW 13:51:22 57° NNW 13:55:44 10° ENE daylight
20 Jun - 15:29:28 10° WNW 15:33:28 33° N 15:37:30 10° ENE daylight
20 Jun - 17:11:22 10° WNW 17:15:39 47° NNE 17:19:58 10° E daylight
20 Jun - 18:52:57 10° WNW 18:57:15 50° SW 19:01:35 10° SE daylight
21 Jun - 10:43:25 10° SSE 10:45:15 12° SE 10:47:04 10° ESE visible
21 Jun - 12:21:44 10° SW 12:26:08 66° SE 12:30:30 10° ENE daylight
21 Jun - 14:03:39 10° W 14:07:50 41° NNW 14:12:02 10° ENE daylight
21 Jun - 15:46:02 10° WNW 15:50:04 34° N 15:54:07 10° ENE daylight
21 Jun - 17:27:39 10° WNW 17:32:04 70° NNE 17:36:32 10° ESE daylight
21 Jun - 19:09:35 10° W 19:13:21 27° SW 19:17:08 10° SSE daylight
22 Jun - 10:57:36 10° SSW 11:01:12 24° SE 11:04:46 10° E visible
22 Jun - 12:37:59 10° WSW 12:42:24 75° NNW 12:46:50 10° ENE daylight
22 Jun - 14:20:20 10° WNW 14:24:23 34° N 14:28:26 10° ENE daylight
22 Jun - 16:02:27 10° WNW 16:06:37 40° NNE 16:10:49 10° E daylight
22 Jun - 17:43:58 10° WNW 17:48:23 72° SSW 17:52:49 10° SE daylight
22 Jun - 19:26:59 10° W 19:29:19 14° SW 19:31:40 10° SSW daylight
